Regional Weather Roundup
Issued by NWS

Home | Current Version | Previous Version | Text Only | Print | Product List | Glossary On
Versions: 1 2 3 4 5 6 7 8 9 10 11 12 13 14 15 16 17 18 19 20 21 22 23 24 25 26 27 28 29 30 31 32 33 34 35 36 37 38 39 40 41 42 43 44 45 46 47 48 49 50
000
ASUS45 KABQ 150410
RWRNM
WEATHER ROUNDUP FOR NEW MEXICO
NATIONAL WEATHER SERVICE ALBUQUERQUE NM
1000 PM MDT SUN SEP 14 2014

NOTE: "FAIR" MEANS FEW OR NO CLOUDS BELOW 12,000 FEET AGL WITH NO
       SIGNIFICANT WEATHER OR OBSTRUCTIONS TO VISION.

      THIS PRODUCT IS RELEASED AS TWO VERSIONS.  ONE VERSION NEAR
      THE TOP OF THE HOUR CONTAINING PRELIMINARY DATA FROM ALBUQUERQUE
      AND OTHER STATIONS.  A FINAL VERSION WITH ADDITIONAL DATA IS
      ISSUED ABOUT 10 MINUTES AFTER THE HOUR.

NMZ501-503-504-510>518-150500-
NORTHWEST PLATEAU/NORTHCENTRAL MOUNTAINS

CITY           SKY/WX    TMP DP  RH WIND       PRES   REMARKS
FARMINGTON     MOCLDY    74  34  23 N5        30.12R
LOS ALAMOS     PTCLDY    61  49  64 S10       30.32S
SANTA FE       PTCLDY    63  52  67 SE7       30.27R
ANGEL FIRE     FAIR      50  44  79 SE3       30.38R

$$
NMZ402-403-502-505>509-150500-
WESTCENTRAL MOUNTAINS/SOUTHWEST MOUNTAINS

CITY           SKY/WX    TMP DP  RH WIND       PRES   REMARKS
GALLUP         LGT RAIN  62  49  62 S16G23    30.24R
GRANTS         CLOUDY    66  50  55 S8        30.28R
SILVER CITY    PTCLDY    66  55  68 E7        30.23R

$$
NMZ407-409-411-412-150500-
SOUTHERN DESERTS

CITY           SKY/WX    TMP DP  RH WIND       PRES   REMARKS
LORDSBURG      FAIR      72  54  53 E10       30.12R
DEMING         PTCLDY    73  56  54 E9        30.14R
LAS CRUCES     CLOUDY    71  58  63 SE9       30.18R
HOLLOMAN AFB   CLEAR     69  58  68 S10       30.15R
ALAMOGORDO     PTCLDY    66  57  72 CALM      30.18R
T OR C         MOCLDY    70  55  59 SE6       30.19R

$$
NMZ519>523-150500-
CENTRAL VALLEYS/CENTRAL HIGHLANDS

CITY           SKY/WX    TMP DP  RH WIND       PRES   REMARKS
ALBUQUERQUE    MOCLDY    69  52  54 SE6       30.21R
DOUBLE EAGLE   CLEAR     68  52  56 S14       30.24R
MORIARTY ARPT  FAIR      55  52  91 W3        30.28S
CLINES CORNERS PTCLDY    55  50  83 SW6       30.29S
BELEN          FAIR      69  54  58 S12       30.20R
SOCORRO        FAIR      69  54  59 S9        30.20R

$$
NMZ524>526-539-540-150500-
SOUTHCENTRAL MOUNTAINS

CITY           SKY/WX    TMP DP  RH WIND       PRES   REMARKS
RUIDOSO        NOT AVBL

$$
NMZ527>531-150500-
NORTHEAST HIGHLANDS/NORTHEAST PLAINS

CITY           SKY/WX    TMP DP  RH WIND       PRES   REMARKS
LAS VEGAS      CLEAR     56  54  93 S14       30.28S
RATON          CLEAR     60  53  77 SW7       30.22R
CLAYTON        MOCLDY    61  55  81 S16       30.16R

$$
NMZ532>537-150500-
EASTCENTRAL PLAINS

CITY           SKY/WX    TMP DP  RH WIND       PRES   REMARKS
TUCUMCARI      PTCLDY    66  58  75 W9        30.16R
CANNON AFB     CLOUDY    63  62  98 S13       30.21S
CLOVIS AIRPORT   N/A     63  57  82 S14       30.24R

$$
NMZ028-029-538-150500-
SOUTHEAST PLAINS

CITY           SKY/WX    TMP DP  RH WIND       PRES   REMARKS
ROSWELL        CLOUDY    62  59  90 S12       30.21R
CARLSBAD       CLOUDY    63  63 100 SW7       30.19S
HOBBS          CLOUDY    63  63 100 S7        30.22R


$$



USA.gov is the U.S. government's official web portal to all federal, state and local government web resources and services.